CAPE
886 130 49 0 8 0 1 55 2 10 58 148 291 356 346 429 281 38 0 0 0 84 748 996 1417 1343 1171 940 571 503 530 569 599 511 478 50 0 0 0 0 0 0 0
1083 142 105 0 0 0 0 39 19 10 32 86 52 170 204 154 87 10 0 0 0 0 74 690 1361 1877 1915 1641 964 603 555 551 629 654 508 42 0 0 0 0 0 0 0
1302 730 111 64 9 85 352 211 241 94 30 14 0 10 8 10 0 0 0 0 0 0 0 22 427 1231 1752 1977 1548 1005 722 541 556 593 313 69 0 0 0 0 0 0 0
991 1076 222 278 125 110 23 14 2 0 0 0 30 0 0 1 0 0 0 0 0 0 0 0 1 206 548 989 1401 1482 1307 849 653 500 192 82 0 0 0 0 0 0 0
850 882 453 493 883 21 233 170 148 94 61 0 0 0 0 0 0 0 0 0 0 0 0 0 0 0 16 80 594 1255 1580 1325 905 523 196 29 0 0 0 0 0 0 0
726 1164 531 822 624 200 157 52 281 114 0 0 0 0 0 0 0 0 0 0 0 0 82 305 0 0 0 0 8 510 1159 1725 1266 753 210 92 15 20 4 0 0 0 0
1167 1062 720 831 729 498 404 709 446 440 39 33 0 0 0 1 25 0 0 0 0 0 23 255 449 381 110 58 29 26 601 1545 1401 991 276 153 207 109 37 21 15 19 0
1574 1209 1170 749 874 577 982 868 738 423 199 279 0 0 0 0 262 517 279 70 79 0 0 248 478 811 831 578 202 218 246 1040 1276 1021 438 157 199 253 197 113 73 60 37
1726 1635 1475 1211 984 991 804 1046 1112 813 330 309 512 32 0 0 102 287 1243 864 1013 439 626 741 830 1082 1145 1232 886 490 420 404 500 733 588 187 186 209 273 231 173 147 143
1747 1513 1700 1529 1411 1077 904 1054 700 857 831 366 414 293 567 516 126 274 736 1269 1177 1149 1610 1332 1187 1303 1101 1375 1067 849 736 639 686 544 356 225 213 222 202 283 293 219 162
1922 1432 1861 1888 1776 1444 1259 977 969 1197 906 584 277 739 947 823 1012 522 528 359 1210 1331 1398 1859 1721 1682 1709 1521 1581 1662 1191 935 784 600 493 359 217 217 227 227 263 280 246
1564 1840 1538 1958 1921 1812 1559 1354 1060 1310 1029 927 549 417 603 830 918 797 1017 1139 947 867 1235 1947 2023 1694 1305 1390 597 767 990 894 692 602 530 383 270 260 228 194 208 230 157
1306 1311 1599 1787 1733 1808 1743 1538 1320 1079 1093 874 899 672 622 509 644 844 1044 1059 1127 1263 1417 1251 1109 1249 823 880 602 504 603 639 551 451 307 198 210 232 202 211 195 254 179
951 845 821 1185 1412 1385 1472 1198 1097 1185 975 1170 1114 983 717 710 736 746 1047 1400 1511 1543 1515 1060 647 407 339 430 468 400 315 140 76 62 22 93 189 202 230 214 185 92 10
1589 2078 1526 1351 1398 1323 1365 1504 1325 1263 1257 1189 1173 1177 1136 1053 1297 1511 1816 1748 1503 988 790 948 881 573 359 628 336 119 119 2 37 25 0 53 149 126 146 172 190 158 16
1075 1300 1785 1585 1745 1744 1468 1470 1195 1127 1284 1245 1323 1534 1402 1441 1512 2048 2145 1757 1507 1152 717 840 839 1018 626 250 131 140 91 88 128 183 114 109 85 83 91 120 125 147 43
839 1100 1433 1463 1538 1698 1922 1892 1558 1282 1125 1349 1485 1715 1851 2065 1933 2029 1762 1501 983 1269 1060 692 275 285 218 327 181 105 186 203 128 167 129 93 96 62 62 49 76 113 151
745 760 900 1044 1278 1289 1346 1403 1319 1275 1598 1639 1419 1652 1572 1463 1248 1599 1646 1536 1401 1200 652 381 468 294 654 655 336 168 91 134 120 172 118 90 138 91 151 146 99 41 67
341 560 802 665 1066 1190 1006 1059 953 1113 1076 918 1100 1176 1217 1439 1451 1433 1306 1351 1104 768 816 949 796 662 198 199 245 144 195 368 352 318 162 190 145 97 43 70 37 102 95
233 417 298 388 566 810 811 928 813 760 960 1047 1001 805 635 969 1029 763 858 786 423 604 926 885 733 552 474 442 345 375 331 396 294 266 316 240 76 80 51 57 94 80 0
111 262 195 630 458 676 563 569 528 562 819 728 647 457 362 388 389 460 500 481 619 874 1165 927 468 547 484 394 299 344 340 369 301 257 175 193 128 27 2 1 50 65 28
0 59 189 188 197 461 313 374 76 381 436 455 374 391 398 428 386 433 420 355 332 336 558 659 699 414 314 346 396 344 270 265 246 208 240 240 149 77 0 1 5 3 23
0 0 0 0 8 10 19 72 24 77 132 226 138 151 256 253 291 165 155 81 150 481 536 554 565 417 485 397 343 362 340 376 282 227 137 192 158 30 76 0 0 8 3
0 0 1 0 0 0 0 0 0 0 3 18 33 26 44 47 55 22 16 1 0 0 3 30 181 212 243 291 282 326 370 320 243 221 246 154 152 106 5 28 9 5 0
0 0 0 0 0 0 0 0 0 0 0 0 0 0 0 0 0 0 0 0 0 0 0 0 0 0 0 31 111 207 184 316 149 275 219 115 73 253 44 7 35 6 6
0 0 0 0 0 0 0 0 0 0 0 0 0 0 0 0 0 0 0 0 0 0 0 0 0 0 0 0 18 53 117 162 134 220 63 241 177 144 129 41 3 11 7
CIN
-55 -192 -89 0 -90 0 -67 -243 -207 -282 -171 -104 -71 -61 -55 -48 -50 -100 0 0 -21 -325 -94 -45 -7 -5 -7 -14 -27 -25 -9 -2 0 -2 -3 -90 0 0 0 0 0 0 0
-40 -196 -73 0 0 0 0 -174 -212 -145 -152 -140 -176 -109 -89 -87 -108 -53 0 0 0 -64 -335 -91 -14 0 0 0 -14 -29 -16 -9 -1 0 -9 -95 0 0 0 0 0 0 0
-29 -71 -185 -203 -185 -136 -86 -112 -89 -116 -130 -170 -15 -47 -206 -193 0 0 0 0 0 0 0 -335 -133 -22 0 0 -1 -15 -20 -33 -16 -6 -50 -137 0 0 0 0 0 0 0
-64 -56 -162 -141 -177 -179 -204 -197 -39 0 0 0 -99 0 0 -32 0 0 0 0 0 0 0 0 -45 -202 -98 -34 -6 -2 -6 -17 -26 -31 -79 -139 0 0 0 0 0 0 0
-108 -92 -137 -100 -63 -256 -144 -145 -146 -139 -51 0 0 0 0 0 0 0 0 0 0 0 0 0 0 0 -319 -259 -86 -18 0 -3 -7 -37 -107 -184 0 0 0 0 0 0 0
-152 -55 -138 -63 -111 -190 -190 -215 -123 -152 0 0 0 0 0 0 0 0 0 0 0 0 -127 -59 0 0 0 0 -129 -109 -24 0 -2 -16 -95 -86 -134 -146 -125 0 0 0 0
-92 -91 -113 -69 -100 -142 -142 -81 -113 -97 -212 -175 0 0 0 0 -152 0 0 0 0 0 -91 -76 -49 -44 -128 -156 -166 -132 -95 -8 -8 -18 -98 -64 -45 -84 -92 -108 -108 -99 0
-69 -102 -68 -90 -68 -122 -43 -48 -82 -122 -166 -114 -4 0 0 0 -20 -31 -65 -35 -112 0 0 -80 -71 -49 -43 -36 -101 -88 -159 -86 -33 -33 -93 -61 -49 -17 -33 -39 -46 -35 -39
-29 -39 -45 -70 -45 -70 -80 -50 -31 -79 -115 -109 -87 -72 0 0 -36 -3 -8 -10 -3 -43 -40 -33 -32 -33 -39 -26 -40 -62 -73 -71 -110 -77 -63 -112 -39 -18 -8 -2 -4 -11 -2
-18 -32 -30 -45 -46 -38 -72 -34 -81 -60 -61 -100 -87 -150 -99 -70 -70 -7 -2 -7 -9 -18 -7 -18 -12 -5 -9 0 -23 -59 -56 -23 -31 -41 -48 -25 -24 -21 -7 0 0 0 0
-8 -31 -7 -9 -13 -20 -19 -77 -49 -40 -50 -91 -91 -32 -50 -71 -40 -50 -40 -27 -4 -11 -5 -2 -8 -1 0 -6 -10 -11 -55 -70 -49 -36 -43 -30 -47 -24 -33 0 0 -2 0
-8 -3 -21 -2 -7 -10 -21 -33 -60 -16 -73 -66 -100 -73 -38 -26 -42 -46 -16 -14 -15 -36 -15 -39 -15 -6 -12 -16 -51 -38 -21 -62 -139 -89 -24 -29 -50 -43 -21 -12 -1 -2 0
-21 -28 -22 -12 -13 -18 -27 -36 -47 -76 -72 -99 -95 -101 -62 -50 -24 -2 0 0 0 -5 -5 -64 -99 -65 -102 -98 -119 -95 -91 -102 -140 -142 -103 -58 -47 -36 -6 0 0 -13 0
-84 -110 -119 -62 -61 -21 -18 -42 -47 -52 -84 -50 -71 -87 -106 -97 -89 -100 -44 -1 0 0 -2 -22 -163 -197 -193 -134 -132 -160 -160 -214 -248 -309 -212 -105 -51 -31 -14 -6 -10 -1 -42
-1 -2 -32 -70 -51 -29 -21 -16 -35 -41 -34 -50 -64 -63 -53 -35 -1 -2 0 0 -4 -15 -27 -15 -40 -179 -117 -113 -129 -199 -261 -45 -235 -195 -21 -119 -52 -58 -42 -15 0 0 -44
-34 -24 -10 -10 -14 -10 -21 -23 -49 -44 -37 -44 -42 -37 -30 -4 -1 0 0 -1 -2 -15 -27 -106 -148 -62 -101 -70 -94 -93 -128 -143 -196 -147 -86 -69 -80 -69 -45 -16 -2 0 0
-21 -10 0 0 -2 -3 0 -1 -5 -9 -22 -8 -12 -6 -3 0 0 0 -1 0 -8 -1 -26 -30 -248 -212 -145 -108 -75 -95 -81 -83 -105 -131 -77 -67 -72 -62 -42 -36 -17 -1 0
-22 -21 -13 -4 0 -1 -5 0 0 -1 0 0 -1 0 0 -4 -3 0 0 0 0 -15 -15 -29 -75 -90 -14 -9 -19 -68 -67 -80 -64 -79 -62 -53 -49 -38 -16 -10 -18 -15 -8
-42 -19 -8 -28 0 0 -1 0 0 0 0 0 0 0 0 0 0 0 0 0 0 -2 -1 0 -32 -20 -23 -14 -30 -37 -44 -6 -5 -4 -28 -16 -33 -32 -41 -17 -27 -2 0
-23 -9 -46 -33 -11 0 -2 0 -3 -1 0 0 0 -3 -14 0 0 -2 0 0 -13 0 0 -4 -10 -6 0 -6 -11 -12 -11 0 0 0 0 -4 -37 -26 -21 -21 -4 -6 0
-46 -8 -18 0 -3 0 0 -1 -1 0 0 0 -1 -1 -11 -9 0 0 0 -4 -3 -1 0 -1 -2 0 0 -8 -25 -7 0 0 0 0 -1 0 -3 -12 -3 0 -10 -11 -4
0 -53 -3 -5 -1 0 -2 -2 -45 0 0 0 -2 -8 0 0 -4 0 0 0 -8 -8 0 0 0 0 -33 -1 -3 0 -1 0 0 0 0 0 0 -3 0 -1 -2 0 -28
0 0 0 0 -27 -45 -25 -8 -109 -6 -12 -1 -3 -6 -7 -14 -11 -21 -22 -38 -38 -6 0 0 0 0 0 0 -1 0 -2 0 0 0 -2 -1 0 -50 -11 0 0 0 0
0 0 -1 0 0 0 0 0 0 0 -17 -54 -9 -19 -36 -44 -46 -18 -22 -25 0 0 0 -19 -7 -15 -4 0 -2 -2 0 0 0 0 0 -1 -5 -11 -8 -57 0 0 0
0 0 0 0 -1 -3 0 0 0 0 0 0 0 0 0 0 0 0 0 0 0 0 0 0 0 0 -22 -89 -44 -10 -5 0 -2 0 0 0 -5 0 -21 -2 -55 -19 0
0 0 0 0 0 0 0 0 0 0 0 0 0 0 0 0 0 0 0 0 0 0 0 0 0 0 0 0 -81 -53 -29 -6 -5 0 -2 0 0 -1 -2 -42 0 0 -6
Wind_Speed
9 6 nan nan nan nan nan nan nan nan nan 3 5 6 7 8 9 nan nan nan nan nan 17 18 20 20 20 20 19 22 22 22 24 23 21 nan nan nan nan nan nan nan nan
12 8 7 nan nan nan nan nan nan nan nan nan nan 9 9 10 nan nan nan nan nan nan nan 17 17 19 20 21 21 21 21 23 23 26 26 nan nan nan nan nan nan nan nan
14 8 7 nan nan nan 10 11 12 nan nan nan nan nan nan nan nan nan nan nan nan nan nan nan 19 18 19 20 20 21 22 23 25 28 32 nan nan nan nan nan nan nan nan
13 15 11 9 8 10 nan nan nan nan nan nan nan nan nan nan nan nan nan nan nan nan nan nan nan 22 22 22 21 22 23 22 25 29 32 nan nan nan nan nan nan nan nan
16 18 14 13 13 nan 11 13 16 nan nan nan nan nan nan nan nan nan nan nan nan nan nan nan nan nan nan nan 22 22 23 24 25 27 30 nan nan nan nan nan nan nan nan
24 21 18 14 17 15 14 nan 12 16 nan nan nan nan nan nan nan nan nan nan nan nan nan 21 nan nan nan nan nan 22 22 25 26 26 30 nan nan nan nan nan nan nan nan
27 24 23 19 17 17 16 17 16 14 nan nan nan nan nan nan nan nan nan nan nan nan nan 26 29 27 31 nan nan nan 25 28 28 28 30 36 37 38 nan nan nan nan nan
30 27 25 23 22 21 20 18 20 20 19 23 nan nan nan nan 22 27 26 nan nan nan nan 31 31 33 32 32 34 34 33 36 33 34 32 35 40 40 43 44 nan nan nan
33 31 30 27 27 27 25 23 22 23 24 27 24 nan nan nan 26 27 33 31 30 33 33 31 34 39 41 37 35 39 40 40 39 35 33 37 41 43 48 47 47 48 47
33 33 32 34 30 34 31 30 28 26 27 27 32 28 24 26 31 28 33 38 36 36 39 38 38 40 42 44 41 40 47 44 51 42 42 43 37 41 47 43 46 46 45
41 37 39 38 38 38 37 35 34 33 34 34 33 38 34 33 33 34 34 39 45 46 48 49 46 44 42 46 47 49 52 64 54 52 49 45 40 40 48 50 49 49 51
53 49 42 44 43 43 40 40 40 39 40 40 39 40 40 42 43 43 41 42 45 44 52 57 54 49 50 49 48 40 50 62 55 50 50 44 40 43 48 51 53 50 48
56 56 52 54 50 47 45 47 48 45 44 44 45 47 50 49 47 46 45 45 49 53 57 58 58 55 54 53 56 50 49 53 56 62 56 48 43 45 51 48 44 47 42
55 53 52 57 52 47 49 49 51 48 48 50 47 50 54 57 58 50 52 55 51 53 56 56 65 69 65 67 64 66 60 61 nan nan nan nan 37 43 49 56 52 nan nan
58 52 51 55 49 46 47 51 56 55 55 56 53 55 58 55 57 56 56 55 60 61 61 65 71 72 73 74 72 67 64 nan nan nan nan nan 41 47 51 54 52 46 nan
67 68 56 54 52 53 54 53 54 53 55 52 51 49 54 58 61 64 62 59 63 64 65 59 63 77 69 64 57 59 nan nan 66 59 54 45 nan nan nan 50 49 51 nan
75 75 72 66 57 50 52 56 55 52 54 52 54 56 56 57 61 60 62 59 60 63 61 57 57 66 59 54 57 57 46 47 53 62 60 nan nan nan nan nan nan 55 51
78 78 77 76 74 72 70 69 63 53 49 52 53 56 56 56 57 59 59 58 58 60 58 47 57 62 59 59 44 39 nan 37 42 43 49 nan 50 nan 54 54 nan nan nan
87 84 80 80 75 74 77 77 75 70 69 67 64 61 57 55 57 58 56 62 58 54 52 55 53 61 62 65 60 49 45 51 50 55 55 54 51 nan nan nan nan 59 nan
88 92 87 83 80 78 79 78 78 74 74 75 73 72 60 56 59 58 50 50 52 51 54 55 54 63 66 59 63 54 53 52 52 56 55 48 nan nan nan nan nan nan nan
91 93 93 88 84 84 88 88 82 83 78 77 76 76 71 64 60 64 60 58 61 61 56 56 57 67 63 65 51 52 51 52 52 56 55 49 48 nan nan nan nan nan nan
nan nan 92 90 91 89 92 94 nan 81 77 73 71 70 69 64 60 61 55 58 59 61 57 55 57 69 61 57 61 59 56 53 48 49 50 47 44 nan nan nan nan nan nan
nan nan nan nan nan nan nan nan nan nan 72 74 72 66 66 65 69 64 61 nan 61 59 60 63 63 61 61 59 59 57 54 53 51 57 54 47 48 nan nan nan nan nan nan
nan nan nan nan nan nan nan nan nan nan nan nan nan nan nan nan nan nan nan nan nan nan nan nan 56 55 60 56 57 54 54 56 57 55 51 50 46 51 nan nan nan nan nan
nan nan nan nan nan nan nan nan nan nan nan nan nan nan nan nan nan nan nan nan nan nan nan nan nan nan nan nan 61 62 58 58 57 57 51 50 nan 50 nan nan nan nan nan
nan nan nan nan nan nan nan nan nan nan nan nan nan nan nan nan nan nan nan nan nan nan nan nan nan nan nan nan nan nan 60 57 58 56 nan 52 53 52 53 nan nan nan nan
Wind_Direction
292 302 nan nan nan nan nan nan nan nan nan 274 251 240 258 269 253 nan nan nan nan nan 326 337 339 343 347 347 352 0 356 353 353 350 352 nan nan nan nan nan nan nan nan
286 302 292 nan nan nan nan nan nan nan nan nan nan 286 284 276 nan nan nan nan nan nan nan 324 331 336 341 342 344 352 355 354 352 349 343 nan nan nan nan nan nan nan nan
284 290 292 nan nan nan 277 272 278 nan nan nan nan nan nan nan nan nan nan nan nan nan nan nan 321 325 325 333 334 339 348 353 352 353 342 nan nan nan nan nan nan nan nan
278 282 280 279 286 280 nan nan nan nan nan nan nan nan nan nan nan nan nan nan nan nan nan nan nan 321 320 328 329 334 342 348 347 347 343 nan nan nan nan nan nan nan nan
285 270 270 274 284 nan 277 276 274 nan nan nan nan nan nan nan nan nan nan nan nan nan nan nan nan nan nan nan 326 330 335 336 339 339 340 nan nan nan nan nan nan nan nan
287 277 269 266 281 283 283 nan 282 286 nan nan nan nan nan nan nan nan nan nan nan nan nan 293 nan nan nan nan nan 325 327 329 330 339 336 nan nan nan nan nan nan nan nan
279 278 275 274 272 274 277 288 285 283 nan nan nan nan nan nan nan nan nan nan nan nan nan 297 292 289 296 nan nan nan 327 325 326 333 336 335 331 331 nan nan nan nan nan
271 273 275 275 278 268 276 278 286 278 281 281 nan nan nan nan 290 298 298 nan nan nan nan 302 301 298 296 298 313 325 328 326 327 329 332 330 327 326 327 330 nan nan nan
270 273 274 269 269 276 273 277 277 282 275 278 288 nan nan nan 283 285 298 296 293 296 295 292 297 305 307 305 303 313 319 319 322 323 324 325 324 323 328 327 324 319 316
259 261 262 267 265 266 272 271 276 277 275 273 278 284 279 268 273 284 290 293 297 297 297 296 299 303 307 308 311 313 308 318 316 315 316 315 320 323 329 327 329 323 323
257 255 257 261 264 262 265 272 275 281 276 277 277 280 284 285 291 292 293 295 301 301 301 300 305 307 309 305 306 305 309 316 314 319 316 317 321 326 327 328 329 324 323
246 252 250 256 261 265 269 271 275 276 282 282 283 283 283 285 290 289 293 296 297 293 293 294 290 288 294 300 297 295 309 311 305 308 310 320 317 322 321 325 326 323 313
240 240 254 245 247 257 262 267 269 272 276 280 285 286 288 290 287 283 287 290 289 290 289 288 285 284 284 290 295 291 294 309 308 308 308 308 314 313 317 319 318 313 294
247 254 252 255 247 244 259 265 269 274 279 279 283 285 282 283 283 284 285 282 289 294 295 301 299 298 301 291 294 298 292 304 nan nan nan nan 302 312 308 311 318 nan nan
247 253 260 259 266 261 257 259 260 266 268 270 276 275 277 285 291 292 291 292 295 294 297 299 299 301 293 295 300 293 296 nan nan nan nan nan 302 308 309 310 310 310 nan
235 234 243 257 259 262 264 264 262 266 274 273 277 286 285 286 289 289 290 291 292 294 292 302 311 302 297 294 287 295 nan nan 289 296 289 298 nan nan nan 311 314 312 nan
240 241 241 242 246 255 263 266 267 267 270 274 278 282 283 285 282 285 283 284 288 291 297 301 306 309 309 303 292 291 293 292 289 279 285 nan nan nan nan nan nan 308 310
239 242 243 243 244 246 247 250 252 257 267 270 273 278 277 278 282 282 283 286 287 290 294 298 296 299 308 310 293 297 nan 289 287 291 297 nan 301 nan 305 305 nan nan nan
236 239 243 246 247 247 248 251 250 250 254 256 262 266 279 284 281 283 283 283 284 286 293 290 294 292 295 301 298 286 282 293 296 301 295 297 298 nan nan nan nan 296 nan
239 239 239 243 249 254 251 250 251 254 255 260 264 260 266 279 282 282 282 284 285 286 287 289 291 291 295 295 295 293 295 292 290 288 289 293 nan nan nan nan nan nan nan
238 239 243 244 245 247 251 249 249 251 258 261 265 268 269 274 273 273 274 278 283 284 285 284 290 290 293 298 296 295 289 286 284 286 289 295 297 nan nan nan nan nan nan
nan nan 241 243 245 248 254 253 nan 252 253 261 266 266 264 269 270 274 276 279 283 282 284 289 290 295 298 296 297 294 295 290 288 290 288 292 294 nan nan nan nan nan nan
nan nan nan nan nan nan nan nan nan nan 257 259 260 262 267 268 273 273 275 nan 286 290 290 284 287 289 293 296 293 295 296 293 289 289 291 293 293 nan nan nan nan nan nan
nan nan nan nan nan nan nan nan nan nan nan nan nan nan nan nan nan nan nan nan nan nan nan nan 271 280 277 279 293 294 290 285 282 290 288 291 294 290 nan nan nan nan nan
nan nan nan nan nan nan nan nan nan nan nan nan nan nan nan nan nan nan nan nan nan nan nan nan nan nan nan nan 282 281 284 288 287 289 289 287 nan 291 nan nan nan nan nan
nan nan nan nan nan nan nan nan nan nan nan nan nan nan nan nan nan nan nan nan nan nan nan nan nan nan nan nan nan nan 285 287 284 288 nan 286 294 290 286 nan nan nan nan